Latest Weather Observations for Camooweal

IDQ60801

Issued at 3:02 pm EST Saturday 28 March 2015 (issued every 30 minutes, with the page automatically refreshed every 10 minutes)

About weather observations | Map of weather stations | Latest weather observations for QLD | Other Formats
Station Details ID: 037010 Name: CAMOOWEAL TOWNSHIP Lat: -19.92 Lon: 138.12 Height: 231.2 m
Data from the previous 72 hours. | See also: Recent months at Camooweal
Date/Time
EST
Temp
°C
App
Temp
°C
Dew
Point
Rel
Hum
%
Delta-T
°C
Wind Press
QNH
hPa
Press
MSL
hPa
Rain
since 9 am
mm
Dir
 
Spd
km/h
Gust
km/h
Spd
kts
Gust
kts
28/03:00pm 38.6 35.3 11.6 20 16.4 SSE 20 37 11 20 1012.0 1010.4 0.0
28/02:30pm 37.4 35.2 10.7 20 15.9 S 13 26 7 14 1012.5 1010.9 0.0
28/02:00pm 37.3 34.8 9.8 19 16.2 S 13 20 7 11 1012.9 1011.3 0.0
28/01:30pm 37.4 35.0 9.9 19 16.2 SSE 13 20 7 11 1013.5 1012.0 0.0
28/01:00pm 36.6 33.8 10.0 20 15.6 SE 15 24 8 13 1014.2 1012.7 0.0
28/12:30pm 35.9 32.9 9.4 20 15.4 E 15 24 8 13 1015.0 1013.5 0.0
28/12:00pm 35.3 31.8 7.4 18 15.7 ESE 15 26 8 14 1015.6 1014.0 0.0
28/11:30am 34.0 29.8 5.5 17 15.4 E 17 28 9 15 1016.0 1014.4 0.0
28/11:00am 32.5 27.6 4.3 17 14.8 SE 19 30 10 16 1016.4 1014.8 0.0
28/10:30am 30.5 25.2 1.9 16 14.3 SE 19 22 10 12 1016.7 1015.1 0.0
28/10:00am 29.0 23.5 0.7 16 13.7 SE 19 28 10 15 1016.7 1015.1 0.0
28/09:30am 27.3 22.1 0.1 17 12.9 SSE 17 20 9 11 1017.0 1015.4 0.0
28/09:00am 25.5 19.6 -0.5 18 12.0 SSE 20 26 11 14 1016.9 1015.3 0.0
28/08:30am 23.9 18.1 -0.4 20 11.1 SSE 20 26 11 14 1016.6 1015.0 0.0
28/08:00am 22.8 17.6 0.0 22 10.4 SSE 17 22 9 12 1016.5 1014.9 0.0
28/07:30am 21.5 17.0 -0.5 23 9.9 S 13 17 7 9 1016.3 1014.7 0.0
28/07:00am 20.8 16.3 -0.5 24 9.5 S 13 19 7 10 1016.0 1014.4 0.0
28/06:30am 21.4 16.5 -0.6 23 9.8 S 15 20 8 11 1015.7 1014.1 0.0
28/06:00am 22.0 16.4 -0.1 23 10.0 S 19 26 10 14 1015.7 1014.1 0.0
28/05:30am 22.2 17.3 -0.5 22 10.2 SSE 15 20 8 11 1015.5 1013.9 0.0
28/05:00am 22.7 17.1 -0.1 22 10.4 S 19 26 10 14 1015.3 1013.7 0.0
28/04:30am 22.9 17.7 0.1 22 10.5 SSE 17 22 9 12 1015.3 1013.7 0.0
28/04:00am 23.3 17.7 -0.2 21 10.7 SSE 19 24 10 13 1015.4 1013.8 0.0
28/03:30am 23.4 18.3 0.5 22 10.6 S 17 22 9 12 1015.5 1013.9 0.0
28/03:00am 24.0 18.7 -0.3 20 11.1 S 17 24 9 13 1015.5 1013.9 0.0
28/02:30am 24.6 18.9 -0.5 19 11.5 SSE 19 26 10 14 1015.8 1014.2 0.0
28/02:00am 25.1 19.5 -0.1 19 11.7 SSE 19 26 10 14 1016.0 1014.4 0.0
28/01:30am 25.7 19.9 -0.4 18 12.1 SSE 20 28 11 15 1016.1 1014.5 0.0
28/01:00am 26.0 20.2 -0.1 18 12.2 S 20 28 11 15 1016.3 1014.7 0.0
28/12:30am 26.1 20.5 0.0 18 12.2 S 19 26 10 14 1016.6 1015.0 0.0
28/12:00am 26.8 21.0 -0.3 17 12.7 S 20 26 11 14 1016.7 1015.1 0.0
 
Date/Time
EST
Temp
°C
App
Temp
°C
Dew
Point
Rel
Hum
%
Delta-T
°C
Wind Press
QNH
hPa
Press
MSL
hPa
Rain
since 9 am
mm
Dir
 
Spd
km/h
Gust
km/h
Spd
kts
Gust
kts
27/11:30pm 27.4 21.2 -0.6 16 13.1 SSE 22 30 12 16 1016.6 1015.0 0.0
27/11:00pm 27.9 21.7 -0.2 16 13.3 S 22 32 12 17 1016.7 1015.1 0.0
27/10:30pm 28.0 22.1 -1.0 15 13.5 S 20 26 11 14 1016.8 1015.2 0.0
27/10:00pm 28.6 22.4 -0.5 15 13.8 S 22 32 12 17 1016.8 1015.2 0.0
27/09:30pm 28.9 22.7 -0.3 15 13.9 S 22 32 12 17 1016.6 1015.0 0.0
27/09:00pm 29.6 23.3 -0.7 14 14.4 S 22 32 12 17 1016.4 1014.8 0.0
27/08:30pm 29.9 24.2 0.5 15 14.3 S 20 28 11 15 1015.9 1014.3 0.0
27/08:00pm 30.8 25.0 0.2 14 14.9 S 20 28 11 15 1015.5 1013.9 0.0
27/07:30pm 32.0 26.0 1.2 14 15.4 S 22 33 12 18 1015.2 1013.6 0.0
27/07:00pm 32.9 26.9 0.9 13 16.0 S 22 30 12 16 1014.7 1013.2 0.0
27/06:30pm 33.9 27.6 1.6 13 16.4 SSE 24 30 13 16 1014.5 1013.0 0.0
27/06:00pm 34.8 29.4 2.3 13 16.8 SSE 20 28 11 15 1014.1 1012.6 0.0
27/05:30pm 35.0 29.4 1.4 12 17.1 SSE 20 32 11 17 1014.0 1012.5 0.0
27/05:00pm 35.4 29.9 1.7 12 17.3 SSE 20 32 11 17 1014.0 1012.5 0.0
27/04:30pm 35.4 30.3 2.8 13 17.0 SSE 19 33 10 18 1014.0 1012.5 0.0
27/04:00pm 35.6 29.7 1.8 12 17.4 SSE 22 30 12 16 1014.1 1012.6 0.0
27/03:30pm 35.8 29.9 2.0 12 17.5 SSE 22 35 12 19 1014.3 1012.8 0.0
27/03:00pm 35.7 30.8 1.9 12 17.4 SSE 17 30 9 16 1014.7 1013.2 0.0
27/02:30pm 35.1 30.1 1.5 12 17.2 SSE 17 28 9 15 1015.3 1013.7 0.0
27/02:00pm 34.8 29.4 1.2 12 17.1 SE 19 26 10 14 1015.9 1014.3 0.0
27/01:30pm 34.3 28.6 0.8 12 16.9 SE 20 30 11 16 1016.3 1014.7 0.0
27/01:00pm 33.8 28.7 0.5 12 16.6 SSE 17 28 9 15 1017.0 1015.4 0.0
27/12:30pm 32.7 27.6 0.7 13 15.9 SE 17 28 9 15 1017.6 1016.1 0.0
27/12:00pm 31.9 25.8 0.1 13 15.5 SSE 22 32 12 17 1018.1 1016.6 0.0
27/11:30am 31.9 25.5 1.1 14 15.3 SSE 24 35 13 19 1018.5 1017.0 0.0
27/11:00am 29.7 23.1 -0.6 14 14.4 SE 24 33 13 18 1018.8 1017.3 0.0
27/10:30am 28.8 21.8 -0.4 15 13.9 SE 26 35 14 19 1019.0 1017.5 0.0
27/10:00am 28.1 20.8 -0.1 16 13.4 SE 28 37 15 20 1019.4 1017.9 0.0
27/09:30am 26.8 19.6 0.5 18 12.5 SSE 28 37 15 20 1019.6 1018.1 0.0
27/09:00am 25.7 18.5 0.4 19 11.9 SSE 28 37 15 20 1019.6 1018.1 0.0
27/08:30am 24.5 17.7 0.8 21 11.2 SSE 26 37 14 20 1019.5 1018.0 0.0
27/08:00am 23.2 16.7 0.3 22 10.5 SSE 24 35 13 19 1019.0 1017.5 0.0
27/07:30am 22.4 15.5 0.3 23 10.1 SSE 26 35 14 19 1018.7 1017.2 0.0
27/07:00am 22.2 16.1 0.7 24 9.9 S 22 33 12 18 1018.3 1016.8 0.0
27/06:30am 22.5 16.1 0.9 24 10.0 S 24 33 13 18 1018.2 1016.7 0.0
27/06:00am 23.0 15.8 0.8 23 10.3 S 28 39 15 21 1018.0 1016.5 0.0
27/05:30am 23.5 16.8 1.2 23 10.5 S 26 35 14 19 1017.9 1016.4 0.0
27/05:00am 23.9 17.6 1.5 23 10.6 S 24 33 13 18 1017.8 1016.3 0.0
27/04:30am 24.4 18.1 1.3 22 11.0 S 24 32 13 17 1017.7 1016.2 0.0
27/04:00am 25.2 18.9 1.3 21 11.4 S 24 32 13 17 1017.6 1016.1 0.0
27/03:30am 26.2 19.9 1.5 20 11.9 S 24 33 13 18 1017.5 1016.0 0.0
27/03:00am 26.7 20.5 1.9 20 12.1 S 24 37 13 20 1017.7 1016.2 0.0
27/02:30am 27.1 21.5 1.5 19 12.4 S 20 30 11 16 1017.9 1016.4 0.0
27/02:00am 27.6 22.0 1.2 18 12.8 S 20 28 11 15 1018.2 1016.7 0.0
27/01:30am 28.0 22.1 1.5 18 12.9 S 22 32 12 17 1018.3 1016.8 0.0
27/01:00am 28.7 23.1 1.3 17 13.4 SSE 20 28 11 15 1018.4 1016.9 0.0
27/12:30am 28.9 23.2 0.6 16 13.7 SSE 20 32 11 17 1018.7 1017.2 0.0
27/12:00am 29.0 23.3 0.7 16 13.7 SSE 20 26 11 14 1018.9 1017.4 0.0
 
Date/Time
EST
Temp
°C
App
Temp
°C
Dew
Point
Rel
Hum
%
Delta-T
°C
Wind Press
QNH
hPa
Press
MSL
hPa
Rain
since 9 am
mm
Dir
 
Spd
km/h
Gust
km/h
Spd
kts
Gust
kts
26/11:30pm 29.1 23.8 1.6 17 13.6 SSE 19 26 10 14 1019.0 1017.5 0.0
26/11:00pm 29.3 24.0 1.7 17 13.6 S 19 26 10 14 1018.9 1017.4 0.0
26/10:30pm 29.9 24.3 1.4 16 14.1 SSE 20 30 11 16 1018.8 1017.3 0.0
26/10:00pm 30.1 23.8 1.5 16 14.1 SSE 24 33 13 18 1018.5 1017.0 0.0
26/09:30pm 30.1 23.3 0.6 15 14.4 SSE 26 37 14 20 1018.1 1016.6 0.0
26/09:00pm 30.3 23.1 0.8 15 14.4 SSE 28 39 15 21 1017.9 1016.4 0.0
26/08:30pm 30.7 23.9 1.1 15 14.6 S 26 35 14 19 1017.6 1016.1 0.0
26/08:00pm 31.0 23.8 0.4 14 14.9 S 28 35 15 19 1017.3 1015.7 0.0
26/07:30pm 31.5 25.1 0.8 14 15.2 S 24 35 13 19 1017.1 1015.5 0.0
26/07:00pm 32.0 25.1 0.2 13 15.6 SSE 26 35 14 19 1016.6 1015.0 0.0
26/06:30pm 32.5 25.7 0.6 13 15.8 SE 26 39 14 21 1016.2 1014.6 0.0
26/06:00pm 33.4 26.7 1.3 13 16.2 SE 26 33 14 18 1016.2 1014.6 0.0
26/05:30pm 33.3 26.9 1.2 13 16.2 SSE 24 35 13 19 1016.0 1014.4 0.0
26/05:00pm 33.8 27.1 1.6 13 16.3 SSE 26 35 14 19 1015.8 1014.2 0.0
26/04:30pm 33.8 26.6 0.5 12 16.6 SSE 28 35 15 19 1015.8 1014.2 0.0
26/04:00pm 33.9 26.7 0.5 12 16.7 SSE 28 35 15 19 1015.6 1014.0 0.0
26/03:30pm 33.7 26.8 0.4 12 16.6 S 26 37 14 20 1016.0 1014.4 0.0
26/03:00pm 33.5 26.2 0.2 12 16.5 SSE 28 41 15 22 1016.3 1014.7 0.0
26/02:30pm 32.6 25.8 0.6 13 15.9 SSE 26 41 14 22 1016.7 1015.1 0.0
26/02:13pm 32.6 25.4 0.6 13 15.9 S 28 46 15 25 1016.7 1015.1 0.0
26/02:00pm 32.8 26.0 0.8 13 15.9 SSE 26 41 14 22 1017.0 1015.4 0.0
26/01:30pm 32.6 25.8 0.6 13 15.9 SSE 26 37 14 20 1017.5 1016.0 0.0
26/01:00pm 31.9 24.6 0.1 13 15.5 SSE 28 41 15 22 1018.0 1016.5 0.0
26/12:30pm 31.2 24.0 0.6 14 15.0 SSE 28 39 15 21 1018.5 1017.0 0.0
26/12:00pm 30.4 23.5 -0.1 14 14.7 SSE 26 37 14 20 1018.9 1017.4 0.0
26/11:30am 29.8 22.6 0.4 15 14.3 SSE 28 39 15 21 1019.4 1017.9 0.0
26/11:00am 29.9 23.1 0.5 15 14.3 SE 26 41 14 22 1019.8 1018.2 0.0
26/10:30am 29.1 21.9 0.7 16 13.8 SSE 28 39 15 21 1020.0 1018.4 0.0
26/10:00am 28.5 22.3 1.9 18 13.1 SSE 24 32 13 17 1020.1 1018.5 0.0
26/09:30am 27.1 21.1 0.8 18 12.6 S 22 28 12 15 1020.0 1018.4 0.0
26/09:00am 27.1 21.7 1.5 19 12.4 SSE 19 26 10 14 1019.4 1017.9 0.0
26/08:30am 26.5 20.9 1.0 19 12.2 SSE 20 26 11 14 1018.9 1017.4 0.0
26/08:00am 26.2 21.2 1.5 20 11.9 S 17 22 9 12 1018.6 1017.1 0.0
26/07:30am 26.6 21.3 1.8 20 12.1 SSE 19 28 10 15 1018.2 1016.7 0.0
26/07:00am 26.5 21.2 1.7 20 12.0 SSE 19 24 10 13 1017.8 1016.3 0.0
26/06:30am 26.7 21.5 2.6 21 11.9 SSE 19 26 10 14 1017.5 1016.0 0.0
26/06:00am 26.8 22.1 3.3 22 11.7 SSE 17 22 9 12 1017.3 1015.7 0.0
26/05:30am 27.0 21.8 3.5 22 11.8 SSE 20 28 11 15 1016.8 1015.2 0.0
26/05:00am 27.2 22.0 3.7 22 11.9 SSE 20 30 11 16 1016.6 1015.0 0.0
26/04:30am 27.4 22.6 4.5 23 11.8 S 19 24 10 13 1016.6 1015.0 0.0
26/04:00am 27.5 23.4 4.5 23 11.8 SSE 15 24 8 13 1016.4 1014.8 0.0
26/03:30am 27.7 22.9 4.7 23 11.9 SSE 19 24 10 13 1016.3 1014.7 0.0
26/03:00am 27.9 23.0 4.9 23 11.9 SSE 20 30 11 16 1016.4 1014.8 0.0
26/02:30am 28.0 23.3 5.0 23 11.9 SSE 19 26 10 14 1016.4 1014.8 0.0
26/02:00am 28.3 23.4 5.2 23 12.1 SSE 20 26 11 14 1016.5 1014.9 0.0
26/01:30am 28.2 23.5 5.1 23 12.0 SSE 19 26 10 14 1016.7 1015.1 0.0
26/01:00am 28.2 23.4 5.7 24 11.8 SSE 20 30 11 16 1016.9 1015.3 0.0
26/12:30am 28.1 24.0 6.2 25 11.6 SSE 17 26 9 14 1017.2 1015.6 0.0
26/12:00am 28.4 24.0 6.5 25 11.7 SSE 19 28 10 15 1017.1 1015.5 0.0
 
Date/Time
EST
Temp
°C
App
Temp
°C
Dew
Point
Rel
Hum
%
Delta-T
°C
Wind Press
QNH
hPa
Press
MSL
hPa
Rain
since 9 am
mm
Dir
 
Spd
km/h
Gust
km/h
Spd
kts
Gust
kts
25/11:30pm 28.6 23.9 6.1 24 12.0 SSE 20 28 11 15 1017.1 1015.5 0.0
25/11:00pm 28.7 24.0 6.1 24 12.0 SSE 20 30 11 16 1017.3 1015.7 0.0
25/10:30pm 29.0 24.4 6.4 24 12.1 SSE 20 26 11 14 1017.3 1015.7 0.0
25/10:00pm 29.3 24.4 6.7 24 12.2 SSE 22 32 12 17 1017.2 1015.6 0.0
25/09:30pm 29.7 24.7 6.4 23 12.5 SSE 22 33 12 18 1017.1 1015.5 0.0
25/09:00pm 29.9 25.3 6.5 23 12.6 SSE 20 37 11 20 1016.9 1015.3 0.0
25/08:30pm 30.3 24.3 6.9 23 12.7 SSE 28 39 15 21 1016.5 1014.9 0.0
25/08:00pm 31.0 25.7 6.8 22 13.2 SSE 24 37 13 20 1016.1 1014.5 0.0
25/07:30pm 31.5 26.5 6.5 21 13.6 SSE 22 33 12 18 1015.7 1014.1 0.0
25/07:00pm 31.9 26.8 7.5 22 13.5 S 24 32 13 17 1015.4 1013.8 0.0
25/06:30pm 32.7 27.7 8.2 22 13.8 SSE 24 32 13 17 1015.0 1013.5 0.0
25/06:00pm 33.0 29.8 8.5 22 13.8 SSE 15 24 8 13 1014.6 1013.1 0.0
25/05:30pm 33.6 31.3 9.0 22 14.1 SE 11 17 6 9 1014.4 1012.9 0.0
25/05:00pm 33.6 31.7 9.0 22 14.0 SE 9 15 5 8 1014.4 1012.9 0.0
25/04:30pm 33.6 30.5 9.0 22 14.1 SE 15 20 8 11 1014.3 1012.8 0.0
25/04:00pm 33.5 30.9 9.5 23 13.8 SE 13 22 7 12 1014.1 1012.6 0.0
25/03:30pm 33.3 31.1 9.4 23 13.7 ESE 11 17 6 9 1014.2 1012.7 0.0

Other Formats:

Comma delimited format used in spreadsheet applications
http://www.bom.gov.au/fwo/IDQ60801/IDQ60801.94255.axf

JavaScript Object Notation format (JSON) in row-major order
http://www.bom.gov.au/fwo/IDQ60801/IDQ60801.94255.json